STARLINK-3151 (49408 NORAD) Tracking and Keplerian Element Data

This shows tracking and keplerian element data for the satellite.

Feedback or suggestion? Click here.




ElementValue
Catalog49408
NameSTARLINK-3151
Epoch Orbit365
Epoch Day15.91668981
Epoch Year2022
RAAN185.3622
Inclination53.2174
Eccentricity0.0001306
Argument of Perigee61.4316
Mean Anonmoly290.1042
Mean Motion15.24338481
Decay Rate-0.00655332
L11 49408U 21104A 22015.91668981 -.00655332 00000+0 -28486-1 0 9995
L22 49408 53.2174 185.3622 0001306 61.4316 290.1042 15.24338481 3658

Live tracking and technical data element details for STARLINK-3151 (NORAD 49408). STARLINK-3151 can be tracked NOW for your location showing map with azimuth and elevation plus other details from your city location.

Track the satellite on the map from your city or location and see movement details for azimuth, elevation, latitude, longitude, range, height, and movement on the map or in text.







IsCatalogInMostPopularTable: catalog: 49408, numindb: 10
Update: records affected: 1



GetName: 49408 STARLINK-3151

Hit Count: updated at: Thu, 20 Jan 2022 16:21:32 GMT